This demonstration page uses our WeatherBlox Daily Observations layout. Learn more.

Left ArrowRight Arrow

47.50024, -111.30081

Hourly Observations for November 6, 2015

Temp ( °F °C ) Dew Point ( °F °C ) Humidity (%) Winds ( mph kmh ) Pressure ( in mb ) Visibility ( mi km ) Precip ( " mm )
12:53 am 00:53 Cloudy 29 -1.7 24 -4.4 82 82 SW 7 11 30.21 1023 10 16 0.00 0.00
1:53 am 01:53 Cloudy 29 -1.7 23 -5 78 78 WSW 8 13 30.22 1023 10 16 0.00 0.00
2:53 am 02:53 Clear 24 -4.4 21 -6.1 88 88 WSW 9 15 30.25 1025 10 16 0.00 0.00
3:53 am 03:53 Clear 21 -6.1 19 -7.2 92 92 WSW 6 9 30.27 1025 10 16 0.00 0.00
4:53 am 04:53 Clear 22 -5.6 19 -7.2 89 89 SSW 9 15 30.28 1025 10 16 0.00 0.00
5:53 am 05:53 Clear 26 -3.3 21 -6.1 81 81 SSW 12 19 30.27 1025 10 16 0.00 0.00
6:53 am 06:53 Mostly Cloudy 25 -3.9 21 -6.1 85 85 SSW 9 15 30.28 1025 10 16 0.00 0.00
7:53 am 07:53 Sunny 26 -3.3 21 -6.1 81 81 S 10 17 30.27 1025 10 16 0.00 0.00
8:53 am 08:53 Sunny 31 -0.6 24 -4.4 76 76 SSW 14 22 30.27 1025 10 16 0.00 0.00
9:53 am 09:53 Sunny 35 1.7 26 -3.3 70 70 SW 15 24 30.27 1025 10 16 0.00 0.00
10:53 am 10:53 Sunny 38 3.3 25 -3.9 60 60 SW 20 31 30.27 1025 10 16 0.00 0.00
11:53 am 11:53 Sunny 39 3.9 23 -5 53 53 WSW 20 31 30.24 1024 10 16 0.00 0.00
12:53 pm 12:53 Sunny 40 4.4 23 -5 51 51 WSW 17 28 30.23 1024 10 16 0.00 0.00
1:53 pm 13:53 Sunny 41 5 23 -5 49 49 SW 18 30 30.21 1023 10 16 0.00 0.00
2:53 pm 14:53 Sunny 40 4.4 22 -5.6 49 49 WSW 24 39 30.24 1024 10 16 0.00 0.00
3:53 pm 15:53 Sunny 39 3.9 22 -5.6 50 50 WSW 18 30 30.25 1024 10 16 0.00 0.00
4:53 pm 16:53 Sunny 35 1.7 23 -5 61 61 WSW 16 26 30.25 1024 10 16 0.00 0.00
5:53 pm 17:53 Clear 32 0 22 -5.6 66 66 SW 13 20 30.26 1025 10 16 0.00 0.00
6:53 pm 18:53 Clear 33 0.6 22 -5.6 64 64 SW 15 24 30.26 1025 10 16 0.00 0.00
7:53 pm 19:53 Clear 34 1.1 22 -5.6 61 61 SSW 21 33 30.24 1024 10 16 0.00 0.00
8:53 pm 20:53 Clear 34 1.1 23 -5 64 64 SSW 18 30 30.21 1023 10 16 0.00 0.00
9:53 pm 21:53 Clear 36 2.2 23 -5 59 59 SW 23 37 30.20 1023 10 16 0.00 0.00
10:53 pm 22:53 Clear 36 2.2 23 -5 59 59 SSW 21 33 30.19 1022 10 16 0.00 0.00
11:53 pm 23:53 Clear 35 1.7 24 -4.4 64 64 SSW 17 28 30.18 1022 10 16 0.00 0.00

Powered by AerisWeather